星链-2222 (STARLINK-2222 )

导读 | 豆包AI

STARLINK-2222是美国SpaceX星链(Starlink)星座中的一颗低轨卫星,于2021年5月15日发射入轨。星链项目旨在构建全球低轨卫星互联网,为偏远地区、海上和航空等场景提供高速低延迟宽带服务。STARLINK-2222作为第一代星链组网卫星,助力星座覆盖范围扩展,提升全球网络接入能力,支撑星链系统持续提供全球互联网接入服务。

基本信息
目录编号:
48572
目录名称:
STARLINK-2222
国际标识:
2021-041V
轨道中心:
EARTH
卫星名称:
星链-2222
卫星全名:
星链-2222 (STARLINK-2222 )
卫星状态:
在轨 (已飞行1764 天)
发射日期:
2021-05-15 UTC
国别 :
美国 (US)
星等 :
--
轨道信息
数据来源 国际轨道数据
星历时间: 2026-03-14T14:24:08+0800
11小时前
查看轨道信息
半长轴: 6925.302km
偏心率: 0.0001312
轨道倾角: 53.056°
近地点辐角 95.555°
升交点赤经 121.071°
平近点角 264.559°
近地点: 546.256km
远地点: 548.074km
周期: 95.591分钟
每日圈数: 15.064152
详细信息
固有亮度:
5
最大亮度:
2.5
卫星平台:
Starlink V1.0
覆盖范围:
全球
运营商:
太空探索技术公司
运营商所在国:
美国
制造商(研发单位):
太空探索技术公司
制造商所在国:
美国
使用方式:
暂无
卫星简介
星链(Starlink)计划是由太空探索技术公司(SpaceX)提出的一个巨型低轨卫星互联网星座项目,计划在2019年至2024年间在太空搭建由约1.2万颗卫星组成的“星链”网络,其中1584颗将部署在地球上空550千米处的近地轨道,并从2020年开始工作。该卫星仍在工作。
2D轨道图
3D轨道图
轨道高度分析图
轨道倾角分析图
轨道综合分析图
查看轨道综合分析图